AirNav   Jet Aviation Boston
 
 1584 users online  

0TX6 Elm Creek Airpark
Seguin, Texas, USA

GOING TO SEGUIN?


FAA INFORMATION EFFECTIVE 29 MARCH 2018

Location

FAA Identifier: 0TX6
Lat/Long: 29-30-18.1500N / 097-59-49.7250W
29-30.302500N / 097-59.828750W
29.5050417 / -97.9971458
(estimated)
Elevation: 550 ft. / 168 m (estimated)
Variation: 07E (1985)
From city: 4 miles SSW of SEGUIN, TX
Time zone: UTC -5 (UTC -6 during Standard Time)
Zip code: 78155

Airport Operations

Airport use: Private use. Permission required prior to landing
Activation date: 11/1989
Control tower: no
ARTCC: HOUSTON CENTER
FSS: SAN ANGELO FLIGHT SERVICE STATION
Attendance: UNATNDD
Wind indicator: yes
Segmented circle: no

Airport Communications

WX ASOS at BAZ (12 nm N): 119.325 (830-629-7979)

Nearby radio navigation aids

VOR radial/distance  VOR name  Freq  Var
RNDr088/15.1RANDOLPH VORTAC112.3005E
SATr101/25.6SAN ANTONIO VORTAC116.8008E
SSFr049/(27.6)STINSON VOR108.4009E

Airport Services

Runway Information

Runway 14/32

Dimensions: 1925 x 75 ft. / 587 x 23 m
Surface: turf
Runway edge markings: RY 14/32 OUTLINED WITH CONC DISKS.
RUNWAY 14  RUNWAY 32
Latitude: 29-30.445000N29-30.160000N
Longitude: 097-59.909167W097-59.748333W
Elevation: 550.0 ft.550.0 ft.
Traffic pattern: leftright
Displaced threshold: no50 ft.
Obstructions: 20 ft. pline, marked, 500 ft. from runwaytrees

Airport Ownership and Management from official FAA records

Ownership: Privately-owned
Owner: ELM CREEK HOMEOWNERS ASSN INC
100 TAILWIND DRIVE
SEGUIN, TX 78155-0791
Phone 830-303-3640
Manager: JACK MERRELL
100 TAILWIND DRIVE
SEGUIN, TX 78155-0791
Phone 830-303-3640

Airport Operational Statistics

Aircraft based on the field: 20
Single engine airplanes: 20
    

Instrument Procedures

There are no published instrument procedures at 0TX6.

Some nearby airports with instrument procedures:

KBAZ - New Braunfels Regional Airport (12 nm N)
KRND - Randolph Air Force Base (15 nm W)
KHYI - San Marcos Regional Airport (24 nm N)
KSAT - San Antonio International Airport (25 nm W)
KSSF - Stinson Municipal Airport (27 nm W)
 
Loc | Ops | Rwys | IFR | FBO | Links
Com | Nav | Svcs | Stats | Notes

AirNav Hotels Sweepstakes
 
Area around 0TX6 (Elm Creek Airpark)
 
Road maps at: MapQuest Bing Google
 
Aerial photo
WARNING: Photo may not be current or correct
Aerial photo of 0TX6 (Elm Creek Airpark)
Do you have a better or more recent aerial photo of Elm Creek Airpark that you would like to share? If so, please send us your photo.

 
Sectional chart

 
Airport distance calculator
Flying to Elm Creek Airpark? Find the distance to fly.

From to 0TX6

Sunrise and sunset
Times for 25-Apr-2018
 Local
(UTC-5)
 Zulu
(UTC)
Morning civil twilight06:3111:31
Sunrise06:5611:56
Sunset20:0401:04
Evening civil twilight20:2901:29

Current date and time
Zulu (UTC)  25-Apr-2018 19:38:29
Local (UTC-5)  25-Apr-2018 14:38:29
 
METAR
KBAZ 
13nm N 
251851Z 22006KT 10SM SCT080 29/09 A3001 RMK AO2 SLP155 T02940089
KRND 
14nm W 
251856Z AUTO 19005KT 10SM FEW070 SCT085 SCT180 BKN200 27/13 A3002 RMK AO2 SLP160 T02740130
KHYI 
24nm N 
251856Z 28005KT 10SM SCT075 31/10 A3002 RMK AO2 SLP157 T03110100 $
KSAT 
25nm W 
251851Z VRB06KT 10SM BKN070 BKN250 28/12 A3002 RMK AO2 SLP148 ACC SE T02830117
TAF
KRND 
14nm W 
251700Z 2517/2623 01006KT 9999 SCT015 BKN025 OVC040 QNH3001INS BECMG 2521/2522 01012G18KT 9999 SCT020 OVC035 QNH3003INS TEMPO 2522/2602 02015G25KT 6000 -TSRA OVC020CB BECMG 2602/2603 02012G20KT 6000 -SHRA SCT010 BKN020 OVC035 QNH3008INS BECMG 2605/2606 33010G20KT 9999 NSW FEW020 BKN040 OVC080 QNH3005INS BECMG 2611/2612 35012KT 9999 FEW035 SCT075 QNH3005INS BECMG 2617/2618 01006KT 9999 SKC QNH2992INS TX26/2520Z TN11/2612Z LAST NO AMDS AFT 2600 NEXT 2609
NOTAMs
Click for the latest NOTAMs
NOTAMs are issued by the DoD/FAA and will open in a separate window not controlled by AirNav.

 

 
 

Would you like to see your business listed on this page?

 If your business provides an interesting product or service to pilots, flight crews, aircraft, or users of the Elm Creek Airpark, you should consider listing it here.  To start the listing process, click on the button below
 
Add a business
 

Other Pages about Elm Creek Airpark

elmcreekap.org
 
Update a link
 
Copyright © AirNav, LLC. All rights reserved. Privacy Policy  Contact